Biloxi, MS

12:20 AM CDT on August 20, 2017 (GMT -0500)
Keesler Air Force Base

Weather History for KBIX - October, 2011

Change the Weather History Date:

Thursday, October 20, 2011

  Actual Average Record
Temperature  
Mean Temperature 56 °F -  
Max Temperature 68 °F 78 °F 87 °F (2004)
Min Temperature 44 °F 57 °F 41 °F (1964)
Degree Days  
Heating Degree Days 9    
Growing Degree Days 6 (Base 50)    
Moisture  
Dew Point 37 °F    
Average Humidity 53    
Maximum Humidity 80    
Minimum Humidity 25    
Precipitation  
Precipitation 0.00 in - - ()
Sea Level Pressure  
Sea Level Pressure 30.09 in    
Wind  
Wind Speed 5 mph (NW)    
Max Wind Speed 10 mph    
Max Gust Speed 17 mph    
Visibility 10 miles    
Events      
Averages and records for this station are not official NWS values.
T = Trace of Precipitation, MM = Missing Value Source: NWS Daily Summary

Daily Weather History Graph

Daily Weather History Graph

Search for Another Location

Airport or City:

Trip Planner

Search our weather history database for the weather conditions in past years. The results will help you decide how hot, cold, wet, or windy it might be!

Date:

Astronomy

Oct. 20, 2011 Rise Set
Actual Time 7:01 AM CDT 6:19 PM CDT
Civil Twilight 6:36 AM CDT 6:43 PM CDT
Nautical Twilight 6:08 AM CDT 7:11 PM CDT
Astronomical Twilight 5:40 AM CDT 7:39 PM CDT
Moon 12:15 AM CDT 2:01 PM CDT
Length of Visible Light 12h 07m
Length of Day
11h 18m
Last Quarter, 44% of the Moon is Illuminated
Oct 20
Last Quarter
Oct 26
New
Nov 2
First Quarter
Nov 10
Full
Nov 18
Last Quarter

Hourly Weather History & Observations

Time (CDT) Temp. Windchill Dew Point Humidity Pressure Visibility Wind Dir Wind Speed Gust Speed Precip Events Conditions
12:55 AM 50.5 °F - 37.4 °F 61% 30.04 in 10.0 mi NW 4.6 mph - N/A   Clear
1:55 AM 49.8 °F - 38.8 °F 66% 30.04 in 10.0 mi NW 3.5 mph - N/A   Clear
2:55 AM 48.2 °F - 39.0 °F 71% 30.04 in 10.0 mi WNW 3.5 mph - N/A   Clear
3:55 AM 48.4 °F - 39.2 °F 71% 30.05 in 10.0 mi WNW 3.5 mph - N/A   Clear
4:55 AM 46.9 °F - 39.2 °F 74% 30.06 in 10.0 mi NW 3.5 mph - N/A   Clear
5:55 AM 45.5 °F 43.2 °F 39.0 °F 78% 30.07 in 10.0 mi NW 4.6 mph - N/A   Clear
6:55 AM 44.8 °F 41.6 °F 38.3 °F 78% 30.09 in 10.0 mi NW 5.8 mph - N/A   Clear
7:55 AM 48.0 °F - 39.2 °F 72% 30.10 in 10.0 mi NW 4.6 mph - N/A   Clear
8:55 AM 51.8 °F - 38.3 °F 60% 30.14 in 10.0 mi NNW 5.8 mph - N/A   Clear
9:55 AM 56.7 °F - 37.0 °F 48% 30.14 in 10.0 mi WNW 5.8 mph - N/A   Clear
10:55 AM 60.3 °F - 29.7 °F 31% 30.13 in 10.0 mi Variable 5.8 mph - N/A   Clear
11:55 AM 62.1 °F - 27.5 °F 27% 30.12 in 10.0 mi North 10.4 mph - N/A   Clear
12:55 PM 64.6 °F - 28.9 °F 26% 30.09 in 10.0 mi West 9.2 mph - N/A   Clear
1:55 PM 65.5 °F - 28.8 °F 25% 30.06 in 10.0 mi West 9.2 mph 17.3 mph N/A   Clear
2:55 PM 67.1 °F - 29.5 °F 25% 30.05 in 10.0 mi NW 9.2 mph - N/A   Clear
3:55 PM 68.4 °F - 30.6 °F 25% 30.04 in 10.0 mi NW 10.4 mph - N/A   Clear
4:55 PM 66.6 °F - 30.6 °F 26% 30.05 in 10.0 mi WNW 6.9 mph - N/A   Clear
5:55 PM 63.9 °F - 31.3 °F 29% 30.06 in 10.0 mi NW 5.8 mph - N/A   Clear
6:55 PM 61.0 °F - 35.2 °F 38% 30.08 in 10.0 mi Calm Calm - N/A   Clear
7:55 PM 58.1 °F - 40.1 °F 51% 30.10 in 10.0 mi NW 3.5 mph - N/A   Clear
8:55 PM 56.5 °F - 45.0 °F 65% 30.11 in 10.0 mi Calm Calm - N/A   Clear
9:55 PM 54.9 °F - 43.9 °F 66% 30.13 in 10.0 mi Calm Calm - N/A   Clear
10:55 PM 54.1 °F - 47.5 °F 78% 30.14 in 10.0 mi Calm Calm - N/A   Clear
11:55 PM 52.3 °F - 46.2 °F 80% 30.14 in 10.0 mi Calm Calm - N/A   Clear